Temperature
19 19 18 18 17 18 19 19 19 19 20 20 20 20 19 19 19 19 18 19 19 19 18 18 18 18 18 18 18 18 18 18 18 18 18 18 18 18 18 18 18 18 18 18 18 18 18 18 18
19 19 19 18 18 19 19 19 19 20 20 20 20 20 19 18 18 19 19 18 18 18 18 18 18 18 18 18 18 18 18 18 18 18 18 18 18 18 18 18 18 18 18 18 18 18 18 18 18
19 18 18 17 18 19 20 20 19 20 20 20 20 20 19 19 19 19 19 19 18 18 18 18 18 18 18 18 18 18 18 17 17 17 17 17 17 17 17 17 17 17 18 18 18 18 18 18 18
19 18 18 17 19 19 19 19 19 20 21 21 20 19 19 19 19 19 19 18 18 18 18 18 18 18 18 17 17 17 17 17 17 17 17 17 17 17 17 17 17 17 17 17 17 17 18 18 18
18 18 18 18 19 19 19 19 19 19 20 20 20 19 19 19 19 19 19 19 18 18 18 18 18 18 17 17 17 17 17 17 16 16 16 16 16 16 16 16 17 17 17 17 17 17 17 17 17
19 17 18 18 19 19 19 19 19 20 20 20 20 19 18 19 19 19 19 19 18 18 18 18 18 17 17 17 17 16 16 16 16 16 16 16 16 16 16 16 16 16 16 17 17 17 17 17 17
18 17 18 19 19 19 20 20 20 19 20 20 20 18 18 19 19 19 19 18 18 18 18 18 18 17 17 16 16 16 16 16 16 15 15 15 15 15 15 16 16 16 16 16 16 17 17 17 17
19 17 18 18 19 19 19 20 20 20 20 20 20 19 18 19 19 19 19 18 18 18 18 18 17 17 17 16 16 16 15 15 15 15 15 15 15 15 15 15 15 15 16 16 16 16 16 17 17
19 17 18 18 19 19 19 20 20 20 20 20 20 20 20 20 19 19 18 18 18 18 18 18 17 17 17 16 16 16 15 15 15 15 15 15 15 15 15 15 15 15 15 15 15 16 16 16 16
18 17 18 18 18 19 19 19 20 20 20 20 20 20 20 20 19 19 19 19 19 19 18 18 17 17 17 16 16 16 15 15 15 15 15 15 14 14 15 15 15 15 15 15 15 15 16 16 16
18 18 18 18 18 19 19 20 20 20 19 20 21 21 20 20 19 19 19 19 19 19 18 18 17 17 17 16 16 16 15 15 15 15 15 14 14 14 14 14 14 15 15 15 15 15 15 16 16
18 18 18 18 19 19 19 20 20 20 21 22 22 21 21 20 20 20 20 20 19 19 18 18 18 17 17 16 16 15 15 15 15 15 14 14 14 14 14 14 14 14 14 15 15 15 15 15 15
18 18 18 19 19 19 19 20 20 21 22 22 21 21 21 21 20 20 20 20 19 19 19 18 18 17 17 16 16 15 15 15 15 14 14 14 14 14 14 14 14 14 14 14 14 15 15 15 15
18 18 18 19 19 19 19 20 20 21 22 22 21 21 21 21 21 20 20 20 19 19 19 18 18 17 17 16 16 15 15 15 15 14 14 14 14 14 14 14 14 14 14 14 14 14 15 15 15
18 18 19 19 19 19 20 20 20 22 21 21 21 21 21 21 21 21 21 20 20 19 19 18 18 17 17 16 16 15 15 15 14 14 14 14 14 14 14 14 14 14 14 14 14 14 14 15 15
18 18 18 19 19 19 20 20 21 22 21 21 21 21 21 21 21 21 21 20 20 19 19 18 18 17 17 16 16 15 15 14 14 14 14 14 13 13 13 13 13 13 13 14 14 14 14 14 15
18 18 19 19 19 19 19 19 20 21 21 20 21 21 21 21 21 21 21 20 20 20 19 18 18 17 17 16 16 15 15 14 14 14 14 13 13 13 13 13 13 13 13 13 14 14 14 14 14
18 18 19 19 20 19 19 19 20 21 20 20 20 21 21 21 22 21 21 20 20 20 19 18 18 17 17 16 16 15 15 14 14 14 13 13 13 13 13 13 13 13 13 13 13 14 14 14 14
18 19 19 19 20 20 19 19 19 20 20 19 20 20 21 21 22 21 21 20 20 20 19 19 18 18 17 16 16 15 15 14 14 13 13 13 13 13 13 13 13 13 13 13 13 13 14 14 14
19 19 19 19 20 20 19 19 19 19 19 20 20 20 21 21 21 21 21 21 20 20 19 19 18 18 17 16 16 15 14 14 14 13 13 13 13 13 12 12 12 13 13 13 13 13 13 14 14
19 19 20 20 20 19 20 20 20 20 20 21 21 21 21 21 22 21 21 21 20 20 20 19 19 18 17 16 16 15 14 14 14 13 13 13 13 12 12 12 12 12 12 13 13 13 13 13 14
19 20 20 20 19 18 19 19 19 18 19 20 20 21 21 22 22 22 21 21 21 21 20 19 19 18 17 16 16 15 15 14 14 13 13 13 13 13 12 12 12 12 12 12 13 13 13 13 13
19 19 19 19 19 18 18 18 18 18 20 20 20 21 22 23 22 22 22 22 21 21 20 19 19 18 17 17 16 15 15 14 14 13 13 13 13 13 13 12 12 12 12 12 12 13 13 13 13
20 19 18 16 16 18 18 18 19 18 20 20 20 22 23 23 23 22 22 21 21 20 20 19 19 18 17 17 16 15 15 14 14 14 13 13 13 13 13 13 12 12 12 12 12 13 13 13 13
19 18 17 18 17 18 18 18 18 19 19 19 20 22 23 23 23 23 22 22 21 21 20 19 19 18 18 17 16 16 15 14 14 14 13 13 13 13 13 13 13 12 12 12 12 12 13 13 13
19 18 17 18 18 17 17 18 19 19 20 21 21 22 23 23 23 23 23 22 22 21 21 20 19 19 18 17 17 16 15 15 14 14 14 13 13 13 13 13 13 12 12 12 12 12 13 13 13
19 17 17 16 17 17 17 18 19 20 20 20 21 21 22 23 23 23 23 22 22 21 21 20 20 19 18 18 17 16 15 15 14 14 14 14 13 13 13 13 13 13 12 12 12 12 12 12 12
19 16 15 16 17 17 18 18 18 20 19 19 18 20 21 22 22 23 23 22 22 21 21 20 19 19 18 18 17 16 16 15 14 14 14 14 13 13 13 13 13 13 13 13 13 12 12 12 12
20 18 15 14 15 16 18 18 18 18 18 17 17 19 20 21 22 22 22 22 22 21 20 20 19 19 18 18 17 17 16 15 15 14 14 14 14 13 13 13 13 13 13 13 13 13 13 13 13
21 19 16 17 16 15 16 17 18 17 16 17 17 18 20 20 21 21 21 21 21 21 20 20 19 19 19 18 17 17 16 16 15 15 14 14 14 14 13 13 13 13 13 13 13 13 13 13 13
Wind_Speed
5 6 3 3 4 3 1 1 0 1 1 2 3 5 6 4 2 3 1 5 6 6 6 7 7 7 6 6 6 5 5 4 4 3 3 2 2 2 2 2 2 1 1 1 1 1 1 1 1
6 3 3 4 3 2 2 1 0 0 1 1 2 4 5 4 3 4 3 5 7 6 6 6 7 6 6 5 5 4 3 3 2 2 2 1 1 0 0 1 1 1 2 2 2 2 2 2 1
4 3 3 3 2 2 2 1 0 1 0 0 2 4 4 4 4 4 4 8 7 6 6 6 7 6 6 5 4 3 3 3 2 1 0 0 1 1 2 2 2 3 3 3 3 3 3 3 2
3 3 3 3 1 2 2 1 1 1 2 3 3 4 3 2 5 5 8 9 7 5 6 6 7 6 5 5 4 3 2 2 1 1 1 2 2 3 3 4 4 4 4 4 4 4 4 4 3
3 3 3 2 2 2 1 0 1 1 1 2 3 3 2 3 5 9 9 8 7 5 5 5 6 6 5 4 3 2 2 1 1 2 3 3 3 4 4 5 5 5 5 5 5 5 5 5 5
3 3 3 0 2 2 1 0 1 1 1 2 4 3 1 2 6 8 8 7 7 6 5 5 6 6 5 4 3 2 1 1 1 3 3 4 4 5 5 5 5 6 6 6 5 5 6 6 6
3 3 1 1 1 1 1 1 2 1 1 2 4 4 1 2 5 7 7 6 5 4 4 3 3 4 4 3 2 1 1 1 2 4 4 5 5 6 6 6 6 6 6 6 6 6 6 7 7
4 4 1 1 0 1 2 1 1 1 1 2 4 6 5 6 6 7 6 5 4 3 2 2 2 2 1 1 2 1 1 2 3 4 5 6 6 7 7 7 7 6 6 6 6 6 7 7 7
3 4 1 1 1 1 1 2 2 1 3 1 2 4 4 9 9 8 5 2 2 3 2 2 2 1 1 2 2 2 3 3 4 5 7 7 6 6 7 8 7 7 6 6 6 7 7 7 6
4 3 3 2 1 1 1 1 2 2 1 1 1 2 6 10 10 9 7 7 6 5 4 3 3 2 2 1 1 2 2 3 4 4 5 5 5 5 5 7 7 7 6 6 5 5 5 4 3
3 4 2 1 1 2 1 1 2 5 3 6 6 7 9 9 9 9 8 7 8 6 4 4 4 2 2 1 0 1 2 3 4 4 4 4 4 5 5 5 6 7 7 5 5 5 3 3 2
3 1 2 1 1 1 2 1 1 5 7 6 7 10 11 11 11 11 10 8 6 5 5 4 4 3 2 1 0 1 1 1 2 3 4 3 2 3 3 3 4 4 4 4 3 2 3 2 2
2 1 1 1 1 2 1 2 2 5 6 4 7 9 11 11 10 9 8 7 6 6 5 4 4 4 3 2 1 1 1 1 2 3 3 2 1 2 2 2 3 3 3 2 2 2 2 2 2
3 1 1 1 1 1 1 3 2 6 3 6 9 10 11 11 10 8 7 7 7 7 5 4 4 4 3 2 2 1 2 2 2 3 3 3 2 1 1 2 2 3 3 2 2 2 2 2 1
2 2 2 1 1 1 0 4 6 6 5 7 9 9 9 9 9 10 9 8 8 6 5 5 5 4 4 3 2 2 2 2 2 2 4 4 3 2 1 2 2 3 4 3 2 2 1 1 1
3 2 1 2 2 1 2 6 6 3 7 8 8 8 8 9 9 9 8 7 7 6 6 5 5 5 4 3 2 2 2 2 2 2 3 4 4 3 2 2 2 3 3 2 1 2 1 2 1
3 2 1 2 3 2 3 7 6 2 6 8 9 9 9 8 8 8 8 8 8 8 7 6 5 6 4 4 3 2 2 2 2 2 3 4 4 4 2 2 2 3 2 2 2 2 1 1 2
4 3 1 3 2 3 3 8 9 3 6 8 9 9 9 10 11 8 7 7 7 7 7 7 6 5 5 4 3 3 2 2 2 2 2 3 4 4 3 2 3 3 2 3 2 2 1 1 1
4 3 1 2 1 2 5 9 11 5 5 7 8 9 10 11 7 6 6 7 7 7 7 7 7 6 4 3 2 2 0 1 1 2 3 3 3 4 3 2 3 3 2 3 2 1 2 2 1
3 2 0 2 0 2 4 7 8 4 4 6 8 9 9 7 6 6 7 8 8 9 8 8 7 7 5 3 2 2 1 1 1 2 2 3 3 4 2 2 2 3 2 3 3 2 1 2 2
1 2 1 1 3 4 4 8 6 5 4 2 3 5 6 9 10 9 8 9 8 9 10 9 8 7 5 4 3 3 3 2 2 2 2 3 3 3 2 2 2 2 2 2 3 1 1 1 2
1 3 2 1 3 4 4 3 7 7 8 5 3 3 6 7 8 8 9 9 10 10 9 8 8 6 5 5 4 4 3 2 3 2 2 3 3 3 3 2 2 2 2 2 2 1 0 1 1
2 2 3 2 3 3 5 3 8 6 6 7 6 4 5 6 8 10 10 10 9 8 8 8 7 6 5 5 5 4 3 2 1 1 2 3 3 3 3 2 2 2 2 2 2 2 1 1 1
3 5 6 6 5 4 4 2 5 4 5 7 7 6 5 5 6 8 7 6 7 7 7 7 8 7 6 6 5 5 5 4 2 2 2 2 3 3 3 2 2 2 2 2 2 2 1 1 1
4 5 5 6 5 2 4 1 5 6 5 5 7 8 6 3 4 6 8 8 8 9 9 8 9 8 7 6 6 6 6 5 5 4 3 3 2 2 3 2 2 2 2 2 2 2 1 1 1
4 7 6 4 2 3 5 1 6 6 6 4 4 5 5 4 3 6 8 8 9 10 10 10 10 9 8 7 7 6 5 4 4 4 4 4 3 4 3 2 2 2 2 1 1 1 1 1 1
6 3 5 7 3 3 5 6 8 6 9 9 9 8 7 6 5 5 6 7 8 9 10 11 11 9 8 8 7 6 6 6 5 5 4 4 4 3 3 2 2 2 1 1 1 1 1 1 1
5 8 6 5 4 2 5 4 4 7 8 9 9 9 9 8 6 5 4 5 6 7 7 7 9 9 8 8 7 6 6 6 5 4 5 5 4 3 2 2 2 2 1 1 0 0 0 1 1
4 5 6 5 5 6 1 5 4 5 5 7 8 8 9 9 8 6 4 3 3 4 5 7 8 8 7 8 8 7 7 6 5 5 6 5 4 4 4 3 3 2 2 1 1 0 0 0 0
3 6 6 5 3 4 4 5 4 3 4 4 6 8 8 8 7 6 5 3 1 2 4 6 8 8 9 8 8 8 7 6 6 6 6 5 5 5 4 3 3 3 3 2 2 2 1 1 1
Wind_Direction
116 102 83 62 53 47 3 322 306 345 18 6 47 76 92 85 97 131 135 135 135 137 149 149 143 135 126 122 121 121 120 118 112 110 107 103 106 118 135 145 146 151 167 169 149 146 146 148 120
114 91 55 59 77 47 318 304 18 263 156 148 69 75 78 74 81 107 118 141 134 137 138 144 143 134 126 120 117 115 113 111 110 113 108 107 92 104 179 216 213 222 237 235 219 222 224 220 219
108 65 79 72 90 179 244 269 243 342 151 14 60 58 93 122 124 143 158 138 128 131 136 146 143 138 132 125 117 110 101 94 91 93 94 6 315 297 290 280 267 255 251 251 246 249 250 246 236
97 57 64 75 205 233 225 250 106 54 27 49 93 74 70 87 151 153 139 134 132 135 142 154 151 145 135 129 123 116 108 96 67 33 0 334 316 311 302 295 287 277 268 261 257 260 267 271 261
68 81 69 39 289 285 287 19 124 93 37 67 99 99 59 16 120 131 137 141 145 148 151 164 160 152 145 140 136 124 112 86 43 4 348 336 320 306 303 299 293 286 283 276 267 270 275 274 267
65 72 88 218 287 305 321 182 137 104 90 104 111 112 91 92 131 144 145 148 153 156 160 171 171 162 157 152 149 135 107 45 350 339 338 338 330 319 312 301 294 288 283 281 277 273 271 268 265
109 102 135 219 280 325 348 113 131 110 106 156 132 115 127 177 165 148 142 142 147 151 151 166 175 172 174 175 176 164 22 348 336 336 338 335 330 325 319 311 303 294 286 282 279 279 273 266 265
125 104 70 328 242 300 353 39 66 96 146 116 129 148 188 196 154 128 121 125 136 147 166 183 188 179 173 237 270 275 315 341 348 348 346 349 349 343 333 326 315 304 298 291 286 281 275 271 267
104 84 158 233 212 279 351 66 48 35 107 123 167 186 195 143 130 124 122 129 167 195 204 204 200 199 212 247 288 326 336 352 360 1 0 7 3 350 338 331 325 317 309 300 290 287 284 281 278
100 136 209 214 198 245 314 133 139 89 80 177 76 89 122 132 143 153 167 182 196 211 213 202 202 199 205 243 358 357 359 357 3 6 4 2 358 353 349 345 345 341 332 321 309 304 308 310 306
136 170 197 236 242 222 217 208 156 141 219 212 192 166 146 149 159 172 185 193 203 209 209 196 196 185 184 212 20 18 7 3 7 10 7 9 11 3 3 1 357 357 359 359 352 351 347 336 311
138 186 178 206 211 216 198 191 176 193 227 217 187 166 161 167 178 187 194 201 200 198 207 198 182 172 181 179 134 74 47 17 3 2 13 27 18 5 356 358 351 356 359 358 356 345 336 333 320
154 198 213 245 271 272 277 245 231 240 245 199 160 162 174 181 190 199 200 200 198 199 200 191 170 166 159 146 163 119 98 65 28 24 25 40 42 4 353 353 360 353 355 358 344 341 331 323 318
170 163 297 299 332 314 269 277 243 245 187 163 167 180 189 190 192 194 200 203 202 199 192 175 167 162 150 150 148 131 108 91 62 43 29 39 51 29 359 357 354 351 347 341 338 330 322 313 302
112 85 332 287 235 275 4 293 239 230 163 174 186 192 198 204 200 204 205 201 198 191 179 172 172 152 150 149 147 123 118 98 63 40 33 40 42 32 20 7 357 345 346 345 350 344 347 333 321
101 86 348 282 197 231 153 266 266 188 173 193 201 203 208 215 215 216 208 199 187 174 169 178 165 148 149 140 124 114 113 99 63 39 29 30 31 30 28 15 354 347 355 353 343 346 343 336 334
69 129 205 283 205 181 185 260 282 174 183 202 209 212 215 222 228 220 205 193 180 174 168 168 152 151 146 126 107 96 89 76 51 34 28 21 21 23 32 11 347 355 3 357 343 8 347 322 321
171 166 206 248 217 175 223 266 284 259 206 218 219 217 217 223 228 214 194 182 173 168 163 160 150 146 130 108 88 63 53 31 24 19 6 6 11 12 18 9 359 6 9 360 354 355 0 317 313
137 138 197 269 217 187 249 274 285 275 226 230 227 220 221 227 228 198 182 169 162 162 165 165 159 159 145 130 129 124 177 322 338 333 340 352 360 2 13 6 2 6 5 341 338 348 9 359 346
113 113 305 312 278 200 291 292 293 277 235 231 228 223 219 216 210 200 184 176 177 176 177 176 175 172 175 158 148 156 156 210 268 311 334 346 356 353 356 10 1 356 355 357 359 9 15 4 23
90 169 197 329 10 33 354 339 339 331 323 293 238 219 210 209 209 201 193 191 185 186 186 188 183 179 177 153 114 86 62 32 4 336 325 333 345 347 353 353 351 351 1 350 343 351 50 18 11
268 241 186 64 57 355 33 348 319 330 338 343 317 246 225 219 208 201 195 194 197 196 186 184 178 178 177 163 162 157 163 194 231 248 285 315 338 342 342 341 342 345 352 348 331 3 17 101 44
203 42 102 82 102 39 22 64 307 344 348 327 315 280 250 226 211 207 203 201 197 185 179 179 173 180 180 176 175 170 178 202 234 267 298 319 330 330 329 335 338 336 342 347 351 359 29 87 103
132 68 60 49 68 50 344 75 305 307 297 310 321 312 278 246 224 218 208 190 184 175 174 173 176 189 185 182 181 186 192 194 208 245 273 299 310 313 314 323 331 321 333 345 349 2 41 70 88
93 86 44 26 29 296 313 105 264 282 291 286 303 308 301 273 229 217 205 196 189 183 182 180 182 194 191 189 194 200 202 197 206 220 232 250 276 284 291 314 314 316 322 331 356 21 32 55 81
139 130 141 147 177 299 353 328 272 286 310 318 321 322 328 308 257 232 220 209 201 194 187 184 191 198 192 196 203 202 202 200 213 218 218 230 238 254 271 283 292 310 324 349 23 27 17 54 67
123 112 145 122 113 45 335 322 319 342 357 360 359 354 338 320 300 267 244 221 208 201 198 194 194 199 198 201 199 201 206 207 216 221 224 234 242 250 252 259 276 304 324 350 49 40 10 39 47
116 135 98 97 116 57 334 328 297 321 332 340 346 340 334 337 331 310 274 241 222 211 202 195 198 204 203 198 200 205 208 212 216 214 225 235 243 246 251 251 258 270 292 308 52 53 353 60 4
104 86 94 94 129 136 182 283 256 273 303 318 324 332 332 333 333 329 319 283 233 212 200 200 203 206 205 204 204 205 208 210 209 215 227 231 237 235 238 237 237 245 247 250 234 252 176 144 14
136 145 141 135 158 142 152 260 301 301 318 331 336 341 345 346 344 344 347 353 331 236 220 213 209 210 212 206 203 209 208 204 209 222 229 225 231 235 233 229 230 238 235 225 219 233 212 195 195
Height
1501 1502 1503 1504 1507 1512 1514 1510 1507 1506 1505 1504 1504 1504 1505 1509 1512 1517 1514 1513 1514 1516 1517 1518 1519 1520 1521 1521 1522 1523 1523 1523 1524 1524 1525 1525 1525 1525 1525 1525 1526 1526 1526 1526 1526 1526 1526 1526 1526
1502 1503 1505 1505 1511 1519 1515 1508 1507 1505 1505 1505 1505 1506 1507 1509 1510 1511 1513 1514 1515 1517 1518 1519 1520 1521 1521 1522 1522 1522 1523 1523 1523 1524 1524 1524 1524 1524 1524 1525 1525 1525 1525 1525 1525 1526 1526 1526 1526
1502 1503 1506 1507 1513 1517 1513 1506 1505 1505 1505 1505 1506 1507 1508 1510 1511 1512 1514 1515 1516 1518 1519 1520 1520 1521 1521 1522 1522 1522 1522 1523 1523 1523 1523 1523 1523 1523 1523 1523 1524 1524 1524 1524 1524 1525 1525 1525 1525
1503 1505 1507 1511 1514 1510 1507 1505 1505 1505 1505 1506 1507 1509 1510 1512 1512 1513 1515 1516 1517 1519 1520 1520 1521 1521 1522 1522 1521 1522 1522 1522 1522 1522 1522 1522 1522 1522 1522 1522 1522 1522 1523 1523 1523 1524 1524 1524 1525
1503 1505 1509 1514 1512 1507 1505 1504 1505 1506 1506 1507 1508 1509 1511 1512 1513 1514 1516 1517 1518 1519 1520 1521 1521 1521 1522 1521 1521 1521 1521 1521 1521 1521 1520 1520 1520 1520 1520 1520 1520 1521 1521 1521 1521 1521 1522 1523 1523
1504 1505 1514 1517 1512 1506 1505 1505 1505 1506 1506 1507 1508 1510 1512 1513 1514 1515 1517 1518 1520 1520 1521 1522 1522 1522 1522 1522 1521 1521 1521 1520 1520 1520 1519 1519 1519 1519 1519 1519 1519 1519 1519 1519 1520 1520 1520 1521 1521
1505 1508 1513 1513 1512 1508 1505 1505 1505 1506 1507 1508 1508 1510 1512 1513 1515 1516 1518 1519 1520 1521 1522 1522 1522 1522 1522 1522 1522 1521 1521 1520 1520 1519 1519 1518 1518 1518 1517 1517 1517 1517 1517 1517 1518 1518 1518 1519 1519
1504 1508 1512 1513 1512 1509 1506 1505 1506 1507 1507 1509 1509 1510 1511 1513 1515 1517 1518 1520 1521 1522 1522 1522 1522 1522 1522 1522 1522 1521 1521 1520 1519 1519 1518 1518 1517 1517 1516 1516 1516 1516 1516 1516 1516 1516 1516 1517 1517
1504 1512 1516 1513 1511 1509 1506 1506 1507 1507 1508 1508 1509 1510 1510 1512 1515 1517 1518 1520 1521 1522 1522 1522 1523 1522 1522 1522 1522 1521 1521 1520 1519 1519 1518 1517 1517 1516 1516 1515 1515 1514 1514 1514 1514 1514 1514 1515 1515
1504 1512 1511 1508 1507 1507 1506 1506 1507 1507 1508 1508 1508 1509 1510 1512 1514 1516 1518 1519 1520 1521 1522 1522 1522 1522 1522 1522 1521 1521 1521 1520 1519 1519 1518 1517 1516 1516 1515 1514 1514 1513 1513 1513 1513 1513 1512 1513 1513
1503 1507 1506 1506 1506 1506 1506 1506 1506 1506 1508 1507 1507 1508 1510 1512 1514 1516 1517 1519 1520 1521 1521 1522 1522 1522 1522 1522 1521 1521 1520 1520 1519 1518 1517 1517 1516 1515 1514 1513 1513 1512 1512 1511 1511 1511 1511 1511 1511
1503 1504 1504 1505 1505 1505 1505 1505 1505 1504 1504 1505 1506 1508 1509 1511 1513 1515 1517 1518 1519 1520 1521 1521 1522 1522 1522 1521 1521 1520 1520 1519 1519 1518 1517 1516 1515 1514 1513 1512 1511 1511 1510 1510 1510 1509 1509 1509 1509
1503 1503 1503 1503 1503 1504 1504 1504 1504 1503 1503 1504 1505 1507 1509 1510 1512 1514 1516 1518 1519 1519 1520 1521 1521 1521 1521 1521 1520 1520 1519 1519 1518 1517 1516 1515 1514 1513 1512 1511 1510 1510 1509 1508 1508 1508 1508 1507 1508
1502 1503 1503 1503 1503 1503 1504 1503 1503 1501 1502 1502 1504 1506 1508 1510 1511 1514 1515 1516 1517 1519 1520 1521 1521 1521 1521 1521 1520 1519 1519 1518 1518 1517 1516 1515 1514 1512 1511 1510 1509 1509 1508 1507 1507 1506 1506 1506 1506
1503 1505 1504 1503 1503 1504 1505 1504 1500 1499 1500 1502 1503 1505 1507 1509 1511 1512 1514 1515 1517 1518 1520 1520 1521 1521 1521 1520 1520 1519 1519 1518 1517 1516 1515 1514 1513 1512 1510 1509 1508 1507 1507 1506 1505 1505 1504 1504 1505
1504 1508 1511 1505 1503 1504 1508 1509 1498 1498 1499 1500 1502 1504 1506 1508 1509 1511 1513 1515 1516 1518 1519 1520 1520 1520 1520 1520 1519 1519 1518 1518 1517 1516 1515 1513 1512 1511 1510 1508 1507 1506 1505 1505 1504 1503 1503 1503 1503
1509 1513 1512 1507 1503 1503 1506 1506 1497 1497 1498 1498 1500 1501 1504 1506 1508 1510 1512 1514 1515 1517 1518 1519 1520 1520 1520 1520 1519 1519 1518 1517 1517 1516 1514 1513 1512 1510 1509 1508 1507 1506 1505 1503 1503 1502 1502 1502 1502
1513 1512 1511 1509 1503 1503 1505 1504 1496 1496 1497 1497 1497 1499 1501 1503 1505 1508 1510 1512 1514 1516 1517 1518 1519 1519 1519 1519 1519 1518 1518 1517 1516 1515 1514 1513 1512 1510 1509 1508 1507 1505 1504 1503 1502 1501 1501 1501 1501
1505 1508 1510 1506 1501 1503 1505 1503 1497 1494 1495 1495 1495 1496 1498 1500 1503 1506 1508 1510 1512 1514 1516 1517 1518 1519 1519 1518 1518 1517 1517 1517 1516 1515 1514 1513 1512 1510 1509 1508 1506 1505 1503 1502 1501 1501 1500 1500 1500
1504 1508 1509 1506 1502 1503 1505 1503 1495 1493 1493 1492 1492 1493 1495 1498 1501 1503 1506 1508 1510 1512 1514 1516 1517 1518 1518 1518 1518 1517 1517 1516 1516 1515 1514 1513 1511 1510 1509 1508 1506 1505 1503 1502 1501 1500 1500 1500 1500
1505 1508 1507 1507 1504 1504 1506 1506 1499 1494 1492 1491 1491 1493 1494 1496 1498 1500 1503 1505 1508 1510 1512 1514 1516 1517 1517 1517 1517 1516 1516 1515 1515 1515 1514 1513 1511 1510 1509 1508 1507 1505 1504 1502 1501 1500 1500 1500 1500
1509 1502 1504 1506 1512 1519 1514 1525 1507 1502 1495 1492 1491 1492 1493 1494 1496 1498 1500 1503 1505 1508 1511 1513 1515 1516 1516 1516 1516 1516 1515 1515 1515 1514 1513 1513 1512 1510 1509 1508 1507 1506 1504 1502 1501 1501 1500 1500 1500
1503 1501 1504 1507 1513 1521 1520 1525 1518 1505 1501 1496 1492 1492 1492 1493 1495 1496 1498 1501 1504 1506 1509 1511 1513 1514 1515 1515 1515 1515 1515 1515 1514 1514 1513 1512 1512 1511 1509 1508 1507 1506 1504 1503 1502 1501 1500 1500 1500
1500 1505 1510 1516 1522 1532 1526 1528 1524 1512 1504 1499 1494 1492 1492 1493 1494 1495 1497 1500 1502 1505 1507 1509 1511 1513 1514 1514 1514 1514 1514 1514 1513 1513 1513 1512 1511 1511 1510 1509 1507 1506 1505 1504 1502 1502 1501 1501 1500
1503 1516 1531 1534 1540 1537 1526 1526 1524 1506 1502 1499 1496 1494 1493 1493 1493 1494 1496 1497 1500 1502 1505 1507 1509 1510 1512 1512 1513 1513 1513 1513 1513 1512 1512 1511 1511 1510 1510 1509 1507 1506 1505 1504 1503 1502 1502 1501 1501
1505 1512 1531 1540 1542 1539 1529 1528 1516 1503 1500 1497 1496 1494 1493 1493 1493 1494 1495 1496 1498 1500 1502 1505 1507 1508 1510 1511 1511 1512 1512 1512 1512 1512 1511 1511 1510 1510 1509 1508 1507 1506 1505 1504 1503 1502 1502 1501 1501
1505 1513 1515 1530 1535 1542 1535 1525 1511 1500 1499 1497 1496 1495 1494 1494 1493 1493 1494 1495 1497 1498 1500 1502 1504 1506 1508 1509 1510 1510 1510 1510 1511 1511 1510 1510 1510 1509 1509 1508 1507 1506 1506 1505 1504 1503 1502 1501 1501
1499 1509 1520 1530 1543 1547 1538 1532 1527 1510 1506 1502 1499 1497 1496 1494 1493 1493 1493 1494 1495 1497 1499 1501 1502 1504 1506 1507 1508 1508 1509 1509 1509 1509 1509 1509 1509 1509 1508 1508 1507 1506 1505 1505 1504 1503 1502 1502 1501
1504 1511 1522 1532 1534 1547 1546 1539 1516 1512 1508 1505 1502 1500 1498 1495 1494 1493 1492 1493 1493 1495 1496 1498 1500 1501 1503 1504 1505 1506 1507 1507 1507 1507 1508 1508 1507 1507 1507 1507 1506 1506 1505 1504 1504 1503 1502 1501 1501
1497 1505 1515 1527 1534 1539 1543 1538 1510 1509 1507 1505 1503 1500 1498 1496 1494 1493 1492 1492 1492 1492 1494 1495 1496 1498 1500 1502 1503 1504 1504 1504 1505 1505 1506 1506 1506 1506 1506 1506 1505 1505 1504 1504 1503 1502 1502 1501 1501